GW7363 Weather Reports


Display with metric or nautical units.
time (UTC)temp
F
wind
direction
speed
MPH
gust
MPH
rain 1hr
in
rain 24hr
in
rain mn
in
humidity
%
barometer
mb
20260509141231 46 350 1.0 1.0 0.00 0.00 0.00 69 1021.0
20260509140728 46 349 0.0 0.0 0.00 0.00 0.00 70 1020.9
20260509140225 46 349 0.0 0.0 0.00 0.00 0.00 70 1020.8
20260509135722 46 349 0.0 0.0 0.00 0.00 0.00 72 1020.9
20260509135220 45 349 0.0 1.0 0.00 0.00 0.00 72 1020.8
20260509134717 45 349 0.0 0.0 0.00 0.00 0.00 72 1020.8
20260509134214 45 349 0.0 0.0 0.00 0.00 0.00 73 1020.8
20260509133711 45 349 0.0 0.0 0.00 0.00 0.00 72 1020.6
20260509133208 45 349 0.0 0.0 0.00 0.00 0.00 72 1020.8
20260509132707 45 349 0.0 0.0 0.00 0.00 0.00 71 1020.8
20260509132205 46 348 0.0 0.0 0.00 0.00 0.00 71 1020.8
20260509131700 45 336 0.0 0.0 0.00 0.00 0.00 70 1020.6
20260509131158 46 336 2.0 2.0 0.00 0.00 0.00 70 1020.6
20260509130653 46 326 2.0 2.0 0.00 0.00 0.00 69 1020.7
20260509130149 46 320 2.0 2.0 0.00 0.00 0.00 69 1020.5
20260509125646 46 305 2.0 3.0 0.00 0.00 0.00 69 1020.5
20260509125143 46 324 2.0 3.0 0.00 0.00 0.00 68 1020.5
20260509124640 47 322 2.0 2.0 0.00 0.00 0.00 67 1020.3
20260509124137 46 333 1.0 1.0 0.00 0.00 0.00 68 1020.4
20260509123634 46 335 0.0 0.0 0.00 0.00 0.00 68 1020.4
20260509123131 46 335 1.0 2.0 0.00 0.00 0.00 68 1020.4
20260509122627 47 335 0.0 0.0 0.00 0.00 0.00 68 1020.3
20260509122124 47 335 0.0 0.0 0.00 0.00 0.00 67 1020.5
20260509121620 47 15 0.0 0.0 0.00 0.00 0.00 68 1020.4
20260509121119 47 352 2.0 2.0 0.00 0.00 0.00 67 1020.3
20260509120616 47 352 0.0 0.0 0.00 0.00 0.00 67 1020.5
20260509120115 46 352 0.0 0.0 0.00 0.00 0.00 68 1020.4
20260509115611 46 353 0.0 0.0 0.00 0.00 0.00 67 1020.4
20260509115109 46 350 0.0 1.0 0.00 0.00 0.00 69 1020.3
20260509114607 45 349 1.0 1.0 0.00 0.00 0.00 70 1020.1
20260509114106 46 350 0.0 0.0 0.00 0.00 0.00 70 1020.3
20260509113603 46 350 0.0 0.0 0.00 0.00 0.00 69 1020.3
20260509113101 46 350 0.0 0.0 0.00 0.00 0.00 68 1020.2
20260509112557 46 350 0.0 0.0 0.00 0.00 0.00 68 1020.3
20260509112054 46 347 0.0 0.0 0.00 0.00 0.00 68 1020.1
20260509111551 46 345 1.0 1.0 0.00 0.00 0.00 68 1020.2
20260509111048 45 330 2.0 2.0 0.00 0.00 0.00 69 1020.2
20260509110545 46 330 0.0 0.0 0.00 0.00 0.00 69 1020.0
20260509110042 46 330 0.0 0.0 0.00 0.00 0.00 69 1020.1
20260509105540 46 330 0.0 0.0 0.00 0.00 0.00 68 1020.1
20260509105038 46 330 0.0 0.0 0.00 0.00 0.00 69 1020.2
20260509104534 46 330 0.0 0.0 0.00 0.00 0.00 68 1020.2
20260509104031 46 329 0.0 0.0 0.00 0.00 0.00 68 1020.2
20260509103529 46 329 0.0 0.0 0.00 0.00 0.00 68 1020.1
20260509103027 47 329 0.0 0.0 0.00 0.00 0.00 67 1020.2
20260509102524 47 329 1.0 1.0 0.00 0.00 0.00 66 1020.1
20260509102021 47 329 0.0 0.0 0.00 0.00 0.00 66 1019.9
20260509101517 48 329 0.0 0.0 0.00 0.00 0.00 65 1020.0
20260509101014 47 329 0.0 0.0 0.00 0.00 0.00 65 1020.2
20260509100512 47 329 0.0 0.0 0.00 0.00 0.00 66 1019.7
20260509100009 47 322 0.0 0.0 0.00 0.00 0.00 65 1019.7
20260509095505 48 322 0.0 0.0 0.00 0.00 0.00 64 1019.7
20260509095003 49 322 0.0 0.0 0.00 0.00 0.00 63 1019.6
20260509094459 49 321 0.0 0.0 0.00 0.00 0.00 63 1019.5
20260509093956 49 319 0.0 0.0 0.00 0.00 0.00 62 1019.6
20260509093454 49 343 1.0 1.0 0.00 0.00 0.00 61 1019.5
20260509092951 49 321 3.0 4.0 0.00 0.00 0.00 62 1019.5
20260509092449 50 316 2.0 2.0 0.00 0.00 0.00 61 1019.3
20260509091948 50 321 3.0 3.0 0.00 0.00 0.00 61 1019.3
20260509091444 49 312 2.0 3.0 0.00 0.00 0.00 61 1019.5
20260509090941 50 334 3.0 3.0 0.00 0.00 0.00 61 1019.6
20260509090438 50 305 2.0 3.0 0.00 0.00 0.00 61 1019.5
20260509085936 51 323 2.0 3.0 0.00 0.00 0.00 59 1019.4
20260509085433 51 333 3.0 3.0 0.00 0.00 0.00 58 1019.5
20260509084929 51 324 2.0 2.0 0.00 0.00 0.00 57 1019.5
20260509084426 52 344 2.0 2.0 0.00 0.00 0.00 56 1019.9
20260509083924 52 333 2.0 3.0 0.00 0.00 0.00 56 1019.6
20260509083420 52 329 2.0 2.0 0.00 0.00 0.00 55 1019.6
20260509082917 52 330 3.0 3.0 0.00 0.00 0.00 55 1019.6
20260509082415 52 337 3.0 3.0 0.00 0.00 0.00 55 1019.5
20260509081911 52 329 4.0 6.0 0.00 0.00 0.00 55 1019.6
20260509081409 52 329 5.0 7.0 0.00 0.00 0.00 55 1019.7
20260509080906 52 321 3.0 4.0 0.00 0.00 0.00 54 1019.7
20260509080404 52 321 6.0 8.0 0.00 0.00 0.00 55 1019.6
20260509075902 52 334 3.0 4.0 0.00 0.00 0.00 54 1019.5
20260509075358 53 332 4.0 4.0 0.00 0.00 0.00 53 1019.5
20260509074856 53 319 4.0 6.0 0.00 0.00 0.00 53 1019.5
20260509074354 53 332 3.0 3.0 0.00 0.00 0.00 52 1019.4
20260509073849 53 329 2.0 3.0 0.00 0.00 0.00 51 1019.7
20260509073346 54 334 2.0 3.0 0.00 0.00 0.00 51 1019.6
20260509072843 54 334 3.0 3.0 0.00 0.00 0.00 50 1019.4
20260509072339 54 342 1.0 1.0 0.00 0.00 0.00 50 1019.3
20260509071836 54 340 4.0 4.0 0.00 0.00 0.00 50 1019.4
20260509071333 54 341 2.0 2.0 0.00 0.00 0.00 49 1019.4
20260509070830 55 339 3.0 3.0 0.00 0.00 0.00 49 1019.3
20260509070327 55 331 2.0 2.0 0.00 0.00 0.00 48 1019.2
20260509065823 55 346 2.0 2.0 0.00 0.00 0.00 47 1019.4
20260509065319 55 340 3.0 3.0 0.00 0.00 0.00 47 1019.3
20260509064815 55 352 2.0 3.0 0.00 0.00 0.00 46 1019.2
20260509064313 55 344 4.0 4.0 0.00 0.00 0.00 46 1019.2
20260509063811 56 356 2.0 3.0 0.00 0.00 0.00 45 1018.9
20260509063306 56 344 2.0 2.0 0.00 0.00 0.00 45 1019.0
20260509062804 56 344 2.0 2.0 0.00 0.00 0.00 44 1019.0
20260509062301 55 342 2.0 2.0 0.00 0.00 0.00 45 1019.2
20260509061758 54 6 0.0 0.0 0.00 0.00 0.00 46 1019.0
20260509061256 54 6 0.0 0.0 0.00 0.00 0.00 47 1019.1
20260509060753 54 6 1.0 1.0 0.00 0.00 0.00 48 1018.9
20260509060249 53 6 1.0 1.0 0.00 0.00 0.00 49 1019.0
20260509055745 53 6 0.0 0.0 0.00 0.00 0.00 49 1018.9
20260509055241 53 6 0.0 0.0 0.00 0.00 0.00 49 1019.0
20260509054738 55 6 0.0 0.0 0.00 0.00 0.00 48 1019.0
20260509054235 55 6 0.0 0.0 0.00 0.00 0.00 46 1018.7
20260509053733 56 6 0.0 0.0 0.00 0.00 0.00 45 1018.9
20260509053229 57 6 0.0 0.0 0.00 0.00 0.00 43 1018.7
20260509052728 57 6 1.0 1.0 0.00 0.00 0.00 43 1018.4
20260509052225 56 347 2.0 2.0 0.00 0.00 0.00 44 1018.4
20260509051723 55 45 1.0 1.0 0.00 0.00 0.00 46 1018.6
20260509051220 55 45 0.0 0.0 0.00 0.00 0.00 45 1018.4
20260509050717 56 45 0.0 0.0 0.00 0.00 0.00 45 1018.4
20260509050213 57 44 0.0 0.0 0.00 0.00 0.00 44 1018.6
20260509045711 57 44 0.0 0.0 0.00 0.00 0.00 43 1018.2
20260509045208 57 43 2.0 2.0 0.00 0.00 0.00 41 1018.4
20260509044705 57 153 1.0 1.0 0.00 0.00 0.00 42 1017.9
20260509044203 57 138 1.0 1.0 0.00 0.00 0.00 42 1018.0
20260509043658 57 28 0.0 1.0 0.00 0.00 0.00 42 1017.9
20260509043154 59 28 0.0 0.0 0.00 0.00 0.00 42 1018.0
20260509042651 59 24 1.0 1.0 0.00 0.00 0.00 40 1017.9
20260509042147 60 23 1.0 1.0 0.00 0.00 0.00 38 1017.8
20260509041644 60 2 0.0 0.0 0.00 0.00 0.00 38 1017.7
20260509041141 60 327 0.0 0.0 0.00 0.00 0.00 38 1017.8
20260509040640 60 338 0.0 1.0 0.00 0.00 0.00 38 1017.9
20260509040136 60 321 3.0 4.0 0.00 0.00 0.00 37 1017.7
20260509035633 61 329 3.0 3.0 0.00 0.00 0.00 37 1017.8
20260509035130 61 287 5.0 6.0 0.00 0.00 0.00 36 1017.6
20260509034628 61 344 2.0 2.0 0.00 0.00 0.00 36 1017.5
20260509034124 62 333 3.0 3.0 0.00 0.00 0.00 35 1017.4
20260509033621 62 322 3.0 3.0 0.00 0.00 0.00 35 1017.5
20260509033118 62 341 4.0 6.0 0.00 0.00 0.00 34 1017.1
20260509032615 62 352 4.0 6.0 0.00 0.00 0.00 34 1017.3
20260509032112 62 352 3.0 4.0 0.00 0.00 0.00 33 1016.8
20260509031610 63 355 2.0 2.0 0.00 0.00 0.00 32 1017.0
20260509031108 63 356 3.0 4.0 0.00 0.00 0.00 31 1016.8
20260509030605 63 295 7.0 10.0 0.00 0.00 0.00 31 1016.7
20260509025558 64 338 5.0 6.0 0.00 0.00 0.00 30 1016.6
20260509025054 64 0 5.0 7.0 0.00 0.00 0.00 30 1016.5
20260509024550 64 315 8.0 10.0 0.00 0.00 0.00 29 1016.1
20260509024046 65 338 6.0 7.0 0.00 0.00 0.00 29 1016.2
20260509023544 65 333 9.0 11.0 0.00 0.00 0.00 28 1016.2
20260509023041 66 309 10.0 11.0 0.00 0.00 0.00 28 1016.2
20260509022537 66 341 7.0 10.0 0.00 0.00 0.00 28 1016.1
20260509022035 66 305 5.0 7.0 0.00 0.00 0.00 29 1016.2
20260509021532 66 325 9.0 13.0 0.00 0.00 0.00 29 1016.0
20260509021029 67 328 5.0 7.0 0.00 0.00 0.00 29 1016.0
20260509020527 67 321 6.0 7.0 0.00 0.00 0.00 28 1015.7
20260509020023 67 305 6.0 7.0 0.00 0.00 0.00 28 1015.6
20260509015523 67 282 10.0 13.0 0.00 0.00 0.00 28 1015.6
20260509015019 67 313 9.0 11.0 0.00 0.00 0.00 27 1015.6
20260509014516 68 297 12.0 16.0 0.00 0.00 0.00 26 1015.4
20260509014012 68 331 7.0 8.0 0.00 0.00 0.00 25 1015.6
20260509013509 68 260 12.0 14.0 0.00 0.00 0.00 24 1015.6
20260509013005 68 333 9.0 10.0 0.00 0.00 0.00 24 1015.5
20260509012502 69 346 9.0 13.0 0.00 0.00 0.00 23 1015.6
20260509011959 68 341 5.0 8.0 0.00 0.00 0.00 23 1015.5
20260509011456 69 285 8.0 10.0 0.00 0.00 0.00 22 1015.5
20260509010954 69 285 8.0 15.0 0.00 0.00 0.00 22 1015.6
20260509010451 69 318 6.0 8.0 0.00 0.00 0.00 21 1015.7
20260509005948 69 306 7.0 10.0 0.00 0.00 0.00 20 1015.4
20260509005446 69 313 3.0 6.0 0.00 0.00 0.00 21 1015.6
20260509004946 70 353 7.0 8.0 0.00 0.00 0.00 20 1015.6
20260509004443 70 304 9.0 11.0 0.00 0.00 0.00 20 1015.7
20260509003941 70 338 5.0 7.0 0.00 0.00 0.00 21 1015.6
20260509003438 70 300 6.0 8.0 0.00 0.00 0.00 21 1015.6
20260509002935 71 341 11.0 13.0 0.00 0.00 0.00 21 1015.6
20260509002433 71 335 7.0 9.0 0.00 0.00 0.00 22 1015.4
20260509001930 71 304 7.0 8.0 0.00 0.00 0.00 23 1015.6
20260509001426 71 355 4.0 6.0 0.00 0.00 0.00 21 1015.6
20260509000923 72 261 8.0 10.0 0.00 0.00 0.00 22 1015.5
20260509000421 71 311 3.0 4.0 0.00 0.00 0.00 20 1015.3
20260508235916 71 323 5.0 7.0 0.00 0.00 0.00 22 1015.3
20260508235415 71 326 6.0 8.0 0.00 0.00 0.00 23 1015.2
20260508234911 72 304 11.0 14.0 0.00 0.00 0.00 23 1015.3
20260508234408 73 332 5.0 10.0 0.00 0.00 0.00 24 1015.2
20260508233906 73 264 7.0 8.0 0.00 0.00 0.00 24 1015.3
20260508233405 72 325 1.0 2.0 0.00 0.00 0.00 26 1015.3
20260508232902 72 321 6.0 8.0 0.00 0.00 0.00 26 1015.3
20260508232358 72 308 8.0 9.0 0.00 0.00 0.00 28 1015.4
20260508231856 72 328 6.0 9.0 0.00 0.00 0.00 28 1015.4
20260508231352 71 338 8.0 9.0 0.00 0.00 0.00 29 1015.4
20260508230849 72 324 6.0 9.0 0.00 0.00 0.00 29 1015.3
20260508230346 73 321 8.0 11.0 0.00 0.00 0.00 28 1015.2
20260508225843 72 336 7.0 9.0 0.00 0.00 0.00 28 1015.2
20260508225340 72 328 2.0 3.0 0.00 0.00 0.00 29 1015.2
20260508224838 72 340 5.0 8.0 0.00 0.00 0.00 28 1015.3
20260508224335 73 354 6.0 7.0 0.00 0.00 0.00 28 1015.4
20260508223832 72 276 7.0 8.0 0.00 0.00 0.00 29 1015.4
20260508223330 72 324 7.0 10.0 0.00 0.00 0.00 27 1015.2
20260508222827 72 356 4.0 6.0 0.00 0.00 0.00 26 1015.5
20260508222324 71 324 4.0 4.0 0.00 0.00 0.00 27 1015.4
20260508221821 71 334 5.0 6.0 0.00 0.00 0.00 28 1015.6
20260508221316 72 359 4.0 4.0 0.00 0.00 0.00 28 1015.4
20260508220813 72 328 4.0 4.0 0.00 0.00 0.00 26 1015.4
20260508220309 71 332 7.0 8.0 0.00 0.00 0.00 25 1015.5
20260508215806 71 323 7.0 10.0 0.00 0.00 0.00 24 1015.3
20260508215306 71 302 8.0 9.0 0.00 0.00 0.00 25 1015.4
20260508214800 72 323 8.0 9.0 0.00 0.00 0.00 24 1015.3
20260508214257 73 328 4.0 4.0 0.00 0.00 0.00 23 1015.2
20260508213753 74 333 3.0 3.0 0.00 0.00 0.00 23 1015.2
20260508213250 74 24 1.0 1.0 0.00 0.00 0.00 23 1015.2
20260508212747 73 21 2.0 2.0 0.00 0.00 0.00 23 1015.1
20260508212243 72 33 2.0 2.0 0.00 0.00 0.00 23 1015.1
20260508211739 72 340 4.0 7.0 0.00 0.00 0.00 25 1015.0
20260508211235 72 346 1.0 1.0 0.00 0.00 0.00 24 1015.2
20260508210732 72 164 0.0 0.0 0.00 0.00 0.00 24 1015.0
20260508210229 72 317 1.0 1.0 0.00 0.00 0.00 23 1015.1
20260508205726 71 321 4.0 6.0 0.00 0.00 0.00 24 1015.3
20260508205222 72 343 4.0 4.0 0.00 0.00 0.00 23 1015.4
20260508204718 72 292 1.0 2.0 0.00 0.00 0.00 24 1015.1
20260508204215 73 39 1.0 1.0 0.00 0.00 0.00 23 1015.0
20260508203711 71 157 1.0 1.0 0.00 0.00 0.00 22 1015.2
20260508203208 71 4 1.0 1.0 0.00 0.00 0.00 23 1015.2
20260508202704 71 322 4.0 3.0 0.00 0.00 0.00 24 1015.4
20260508202201 71 329 3.0 3.0 0.00 0.00 0.00 22 1015.6
20260508201658 70 283 2.0 2.0 0.00 0.00 0.00 25 1015.7
20260508201154 70 327 3.0 3.0 0.00 0.00 0.00 23 1015.6
20260508200651 70 324 3.0 4.0 0.00 0.00 0.00 24 1015.5
20260508200147 71 140 2.0 2.0 0.00 0.00 0.00 22 1015.7
20260508195644 71 350 5.0 6.0 0.00 0.00 0.00 23 1015.5
20260508195141 71 345 0.0 0.0 0.00 0.00 0.00 24 1015.8
20260508194637 70 20 3.0 3.0 0.00 0.00 0.00 25 1015.6
20260508194134 71 333 4.0 4.0 0.00 0.00 0.00 26 1015.7
20260508193631 70 354 1.0 1.0 0.00 0.00 0.00 26 1015.8
20260508193127 70 356 3.0 3.0 0.00 0.00 0.00 25 1015.7
20260508192624 69 11 0.0 0.0 0.00 0.00 0.00 25 1015.6
20260508192121 68 340 1.0 1.0 0.00 0.00 0.00 26 1015.8
20260508191618 68 309 3.0 3.0 0.00 0.00 0.00 27 1016.1
20260508191115 68 329 2.0 2.0 0.00 0.00 0.00 27 1016.0
20260508190613 67 347 4.0 6.0 0.00 0.00 0.00 29 1016.0
20260508190108 66 350 2.0 2.0 0.00 0.00 0.00 27 1016.1
20260508185606 67 339 6.0 7.0 0.00 0.00 0.00 27 1016.2
20260508185103 66 330 6.0 7.0 0.00 0.00 0.00 26 1016.2
20260508184600 67 347 4.0 4.0 0.00 0.00 0.00 27 1016.2
20260508184057 67 300 5.0 8.0 0.00 0.00 0.00 26 1016.2
20260508183554 66 343 0.0 1.0 0.00 0.00 0.00 28 1016.3
20260508183050 66 341 6.0 8.0 0.00 0.00 0.00 27 1016.2
20260508182546 66 327 2.0 3.0 0.00 0.00 0.00 28 1016.2
20260508182043 66 340 5.0 7.0 0.00 0.00 0.00 27 1016.1
20260508181538 66 353 4.0 6.0 0.00 0.00 0.00 29 1016.1
20260508181036 66 352 2.0 4.0 0.00 0.00 0.00 28 1016.0
20260508180532 66 155 3.0 3.0 0.00 0.00 0.00 28 1016.3
20260508180029 66 13 1.0 1.0 0.00 0.00 0.00 32 1016.2
20260508175525 65 74 1.0 1.0 0.00 0.00 0.00 37 1016.3
20260508175023 64 112 2.0 3.0 0.00 0.00 0.00 35 1016.3
20260508174520 63 28 1.0 1.0 0.00 0.00 0.00 37 1016.4
20260508174017 64 139 2.0 2.0 0.00 0.00 0.00 39 1016.4
20260508173514 63 97 2.0 2.0 0.00 0.00 0.00 37 1016.3
20260508173010 63 100 0.0 0.0 0.00 0.00 0.00 38 1016.5
20260508172507 63 105 1.0 2.0 0.00 0.00 0.00 37 1016.3
20260508172004 62 109 0.0 1.0 0.00 0.00 0.00 39 1016.3
20260508171500 62 147 2.0 2.0 0.00 0.00 0.00 39 1016.3
20260508170956 61 159 1.0 1.0 0.00 0.00 0.00 41 1016.2
20260508170454 60 159 1.0 1.0 0.00 0.00 0.00 44 1016.2
20260508165951 59 159 1.0 1.0 0.00 0.00 0.00 44 1016.5
20260508165449 58 159 0.0 0.0 0.00 0.00 0.00 44 1016.2
20260508164944 57 159 1.0 1.0 0.00 0.00 0.00 43 1016.4
20260508164442 57 159 2.0 2.0 0.00 0.00 0.00 43 1016.3
20260508163938 58 158 0.0 0.0 0.00 0.00 0.00 43 1016.5
20260508163436 57 158 1.0 1.0 0.00 0.00 0.00 43 1016.3
20260508162932 57 158 1.0 1.0 0.00 0.00 0.00 43 1016.6
20260508162430 57 158 1.0 1.0 0.00 0.00 0.00 45 1016.3
20260508161926 56 158 1.0 1.0 0.00 0.00 0.00 45 1016.2
20260508161423 56 161 2.0 3.0 0.00 0.00 0.00 44 1016.2
20260508160920 55 141 2.0 2.0 0.00 0.00 0.00 47 1016.3
20260508160420 53 141 1.0 1.0 0.00 0.00 0.00 50 1016.4
20260508155915 53 141 1.0 1.0 0.00 0.00 0.00 50 1016.2
20260508155413 53 140 1.0 1.0 0.00 0.00 0.00 50 1016.4
20260508154909 52 152 0.0 0.0 0.00 0.00 0.00 48 1016.4
20260508154407 52 148 0.0 1.0 0.00 0.00 0.00 50 1016.1
20260508153903 52 148 0.0 0.0 0.00 0.00 0.00 51 1016.3
20260508153401 51 148 2.0 1.0 0.00 0.00 0.00 49 1016.2
20260508152856 51 148 0.0 0.0 0.00 0.00 0.00 51 1016.2
20260508152353 51 148 2.0 2.0 0.00 0.00 0.00 51 1016.3
20260508151849 50 148 0.0 1.0 0.00 0.00 0.00 51 1016.3
20260508151347 50 147 1.0 1.0 0.00 0.00 0.00 51 1016.3
20260508150843 50 146 0.0 0.0 0.00 0.00 0.00 50 1016.3
20260508150340 49 146 0.0 1.0 0.00 0.00 0.00 51 1016.2
20260508145836 49 146 1.0 0.0 0.00 0.00 0.00 51 1016.4
20260508145332 49 146 0.0 0.0 0.00 0.00 0.00 51 1016.4
20260508144829 49 147 1.0 2.0 0.00 0.00 0.00 53 1016.4
20260508144327 49 114 1.0 1.0 0.00 0.00 0.00 48 1016.4
20260508143824 48 100 0.0 0.0 0.00 0.00 0.00 51 1016.5
20260508143321 48 99 1.0 1.0 0.00 0.00 0.00 52 1016.4
20260508142818 47 330 1.0 1.0 0.00 0.00 0.00 53 1016.5
20260508142315 46 331 0.0 0.0 0.00 0.00 0.00 54 1016.3
20260508141811 45 330 0.0 0.0 0.00 0.00 0.00 55 1016.4